TimeCST,TemperatureF,Dew PointF,Humidity,Sea Level PressureIn,VisibilityMPH,Wind Direction,Wind SpeedMPH,Gust SpeedMPH,PrecipitationIn,Events,Conditions,WindDirDegrees,DateUTC
12:15 AM,26.6,10.4,51,30.25,10.0,SW,3.5,-,N/A,,Clear,220,2013-02-16 06:15:00
12:35 AM,26.6,12.2,55,30.25,10.0,SW,3.5,-,N/A,,Clear,220,2013-02-16 06:35:00
12:55 AM,26.6,12.2,55,30.25,10.0,SSW,3.5,-,N/A,,Clear,210,2013-02-16 06:55:00
1:15 AM,24.8,12.2,59,30.25,10.0,SW,3.5,-,N/A,,Mostly Cloudy,220,2013-02-16 07:15:00
1:35 AM,26.6,12.2,55,30.24,10.0,WSW,3.5,-,N/A,,Overcast,240,2013-02-16 07:35:00
1:55 AM,26.6,14.0,59,30.24,10.0,West,4.6,-,N/A,,Overcast,260,2013-02-16 07:55:00
2:15 AM,28.4,12.2,51,30.24,10.0,WNW,4.6,-,N/A,,Overcast,290,2013-02-16 08:15:00
2:55 AM,28.4,17.6,64,30.24,10.0,WNW,6.9,-,N/A,,Overcast,300,2013-02-16 08:55:00
3:15 AM,28.4,19.4,69,30.23,10.0,WNW,4.6,-,N/A,,Overcast,300,2013-02-16 09:15:00
3:35 AM,28.4,19.4,69,30.23,10.0,WNW,4.6,-,N/A,,Overcast,300,2013-02-16 09:35:00
3:55 AM,28.4,19.4,69,30.22,10.0,Calm,Calm,-,N/A,,Overcast,0,2013-02-16 09:55:00
4:15 AM,28.4,15.8,59,30.22,10.0,West,3.5,-,N/A,,Overcast,260,2013-02-16 10:15:00
4:35 AM,28.4,15.8,59,30.22,10.0,West,5.8,-,N/A,,Overcast,270,2013-02-16 10:35:00
4:55 AM,28.4,19.4,69,30.22,10.0,West,6.9,-,N/A,,Overcast,280,2013-02-16 10:55:00
5:15 AM,28.4,21.2,74,30.23,10.0,WNW,9.2,-,N/A,,Overcast,300,2013-02-16 11:15:00
6:50 AM,24.8,19.4,80,30.25,10.0,North,10.4,17.3,N/A,Snow,Light Snow,360,2013-02-16 12:50:00
7:50 AM,24.8,19.4,80,30.28,10.0,North,9.2,-,N/A,,Overcast,350,2013-02-16 13:50:00
8:53 AM,26.6,17.6,69,30.30,10.0,NNW,8.1,-,N/A,,Scattered Clouds,330,2013-02-16 14:53:00
9:48 AM,28.4,15.8,59,30.31,10.0,North,6.9,-,N/A,,Mostly Cloudy,350,2013-02-16 15:48:00
10:45 AM,28.4,15.8,59,30.30,10.0,NW,5.8,-,N/A,,Mostly Cloudy,320,2013-02-16 16:45:00
11:45 AM,32.0,14.0,48,30.28,10.0,North,8.1,-,N/A,,Scattered Clouds,350,2013-02-16 17:45:00
12:55 PM,33.8,12.2,41,30.26,10.0,West,5.8,-,N/A,,Scattered Clouds,270,2013-02-16 18:55:00
1:50 PM,33.8,10.4,38,30.24,10.0,NW,8.1,-,N/A,,Mostly Cloudy,310,2013-02-16 19:50:00
2:48 PM,35.6,8.6,33,30.20,10.0,WNW,6.9,-,N/A,,Mostly Cloudy,300,2013-02-16 20:48:00
3:45 PM,37.4,10.4,33,30.19,10.0,WSW,5.8,-,N/A,,Mostly Cloudy,250,2013-02-16 21:45:00
4:45 PM,35.6,10.4,35,30.18,10.0,WSW,5.8,-,N/A,,Overcast,240,2013-02-16 22:45:00
5:48 PM,35.6,12.2,38,30.17,10.0,SSW,5.8,-,N/A,,Overcast,210,2013-02-16 23:48:00
6:52 PM,35.6,14.0,41,30.17,10.0,SW,6.9,-,N/A,,Overcast,220,2013-02-17 00:52:00
7:50 PM,33.8,14.0,44,30.17,10.0,SW,4.6,-,N/A,,Overcast,230,2013-02-17 01:50:00
7:55 PM,33.8,14.0,44,30.17,10.0,WSW,3.5,-,N/A,,Overcast,250,2013-02-17 01:55:00
8:15 PM,33.8,14.0,44,30.17,10.0,Calm,Calm,-,N/A,,Overcast,0,2013-02-17 02:15:00
8:35 PM,33.8,14.0,44,30.17,10.0,Calm,Calm,-,N/A,,Overcast,0,2013-02-17 02:35:00
8:50 PM,33.8,15.8,48,30.17,10.0,SSW,4.6,-,N/A,,Overcast,210,2013-02-17 02:50:00
8:55 PM,32.0,15.8,51,30.16,10.0,Calm,Calm,-,N/A,,Overcast,0,2013-02-17 02:55:00
9:15 PM,32.0,17.6,55,30.17,10.0,Calm,Calm,-,N/A,,Overcast,0,2013-02-17 03:15:00
9:35 PM,32.0,15.8,51,30.17,10.0,Calm,Calm,-,N/A,,Overcast,0,2013-02-17 03:35:00
9:55 PM,33.8,15.8,48,30.17,10.0,SSE,3.5,-,N/A,,Overcast,160,2013-02-17 03:55:00
10:15 PM,32.0,17.6,55,30.16,10.0,Calm,Calm,-,N/A,,Overcast,0,2013-02-17 04:15:00
10:35 PM,32.0,17.6,55,30.16,10.0,SSE,3.5,-,N/A,,Overcast,160,2013-02-17 04:35:00
10:55 PM,32.0,17.6,55,30.15,10.0,SSE,4.6,-,N/A,,Overcast,160,2013-02-17 04:55:00
11:15 PM,32.0,17.6,55,30.14,10.0,SSE,6.9,-,N/A,,Overcast,150,2013-02-17 05:15:00
11:35 PM,33.8,15.8,48,30.14,10.0,SSE,6.9,-,N/A,,Overcast,150,2013-02-17 05:35:00
11:55 PM,33.8,17.6,52,30.14,10.0,SSE,5.8,-,N/A,,Overcast,150,2013-02-17 05:55:00